Time,TemperatureF,DewpointF,PressureIn,WindDirection,WindDirectionDegrees,WindSpeedMPH,WindSpeedGustMPH,Humidity,HourlyPrecipIn,Conditions,Clouds,dailyrainin,SoftwareType,DateUTC
2013-05-16 00:06:00,46.5,46.2,29.57,SE,140,1.0,4.0,99,0.00,,,0.17,Wunderground v.1.15,2013-05-16 04:06:00,
2013-05-16 00:16:00,46.5,46.2,29.57,SE,140,0.0,4.0,99,0.00,,,0.17,Wunderground v.1.15,2013-05-16 04:16:00,
2013-05-16 00:26:00,46.5,46.2,29.57,SE,140,0.0,4.0,99,0.00,,,0.17,Wunderground v.1.15,2013-05-16 04:26:00,
2013-05-16 01:36:00,46.2,45.9,29.55,SE,140,0.0,2.0,99,0.00,,,0.00,Wunderground v.1.15,2013-05-16 05:36:00,
2013-05-16 01:46:00,46.2,45.9,29.55,SE,140,0.0,2.0,99,0.00,,,0.00,Wunderground v.1.15,2013-05-16 05:46:00,
2013-05-16 02:36:00,46.1,45.8,29.55,West,278,0.0,4.0,99,0.00,,,0.00,Wunderground v.1.15,2013-05-16 06:36:00,
2013-05-16 02:46:00,46.1,45.8,29.55,West,277,0.0,4.0,99,0.00,,,0.00,Wunderground v.1.15,2013-05-16 06:46:00,
2013-05-16 03:36:00,45.7,45.4,29.55,WNW,283,0.0,3.0,99,0.00,,,0.00,Wunderground v.1.15,2013-05-16 07:36:00,
2013-05-16 03:46:00,45.5,45.2,29.55,WNW,283,0.0,3.0,99,0.00,,,0.00,Wunderground v.1.15,2013-05-16 07:46:00,
2013-05-16 03:56:00,45.4,45.1,29.55,WNW,283,0.0,3.0,99,0.00,,,0.00,Wunderground v.1.15,2013-05-16 07:56:00,
2013-05-16 04:06:00,45.2,44.9,29.55,WNW,283,0.0,3.0,99,0.00,,,0.00,Wunderground v.1.15,2013-05-16 08:06:00,
2013-05-16 04:16:00,45.2,44.9,29.54,WNW,283,0.0,3.0,99,0.00,,,0.00,Wunderground v.1.15,2013-05-16 08:16:00,
2013-05-16 04:26:00,44.9,44.6,29.54,WNW,283,0.0,3.0,99,0.00,,,0.00,Wunderground v.1.15,2013-05-16 08:26:00,
2013-05-16 04:46:00,44.3,44.0,29.54,WNW,284,1.0,1.0,99,0.00,,,0.00,Wunderground v.1.15,2013-05-16 08:46:00,
2013-05-16 04:56:00,44.2,43.9,29.54,WNW,284,0.0,4.0,99,0.00,,,0.00,Wunderground v.1.15,2013-05-16 08:56:00,
2013-05-16 05:16:00,44.2,43.9,29.54,WNW,284,0.0,3.0,99,0.00,,,0.00,Wunderground v.1.15,2013-05-16 09:16:00,
2013-05-16 05:26:00,44.2,43.9,29.54,WNW,284,0.0,3.0,99,0.00,,,0.00,Wunderground v.1.15,2013-05-16 09:26:00,
2013-05-16 06:06:00,44.6,44.3,29.56,WNW,284,0.0,2.0,99,0.00,,,0.00,Wunderground v.1.15,2013-05-16 10:06:00,
2013-05-16 06:16:00,44.6,44.3,29.56,WNW,284,0.0,2.0,99,0.00,,,0.00,Wunderground v.1.15,2013-05-16 10:16:00,
2013-05-16 06:26:00,44.6,44.3,29.56,WNW,284,0.0,2.0,99,0.00,,,0.00,Wunderground v.1.15,2013-05-16 10:26:00,
2013-05-16 06:46:00,44.9,44.6,29.56,NE,36,1.0,1.0,99,0.00,,,0.00,Wunderground v.1.15,2013-05-16 10:46:00,
2013-05-16 06:56:00,44.8,44.5,29.56,NE,36,0.0,1.0,99,0.00,,,0.00,Wunderground v.1.15,2013-05-16 10:56:00,
2013-05-16 07:36:00,47.1,46.8,29.56,NE,53,0.0,2.0,99,0.00,,,0.00,Wunderground v.1.15,2013-05-16 11:36:00,
2013-05-16 07:46:00,46.4,46.1,29.56,NE,53,1.0,1.0,99,0.00,,,0.00,Wunderground v.1.15,2013-05-16 11:46:00,
2013-05-16 07:56:00,48.5,48.2,29.56,ESE,103,0.0,2.0,99,0.00,,,0.00,Wunderground v.1.15,2013-05-16 11:56:00,
2013-05-16 08:06:00,49.9,49.6,29.56,ESE,103,0.0,3.0,99,0.00,,,0.00,Wunderground v.1.15,2013-05-16 12:06:00,
2013-05-16 08:16:00,50.8,50.5,29.56,ESE,110,1.0,3.0,99,0.00,,,0.00,Wunderground v.1.15,2013-05-16 12:16:00,
2013-05-16 08:26:00,52.0,51.7,29.56,SE,127,1.0,1.0,99,0.00,,,0.00,Wunderground v.1.15,2013-05-16 12:26:00,
2013-05-16 08:46:00,53.2,52.9,29.55,SE,127,2.0,4.0,99,0.00,,,0.00,Wunderground v.1.15,2013-05-16 12:46:00,
2013-05-16 08:56:00,54.7,53.6,29.55,SE,133,1.0,1.0,96,0.00,,,0.00,Wunderground v.1.15,2013-05-16 12:56:00,
2013-05-16 09:36:00,58.7,51.2,29.55,South,179,3.0,6.0,76,0.00,,,0.00,Wunderground v.1.15,2013-05-16 13:36:00,
2013-05-16 09:46:00,59.3,50.3,29.55,SE,142,4.0,4.0,72,0.00,,,0.00,Wunderground v.1.15,2013-05-16 13:46:00,
2013-05-16 09:56:00,60.7,51.6,29.55,ENE,76,2.0,6.0,72,0.00,,,0.00,Wunderground v.1.15,2013-05-16 13:56:00,
2013-05-16 10:36:00,65.5,44.7,29.53,South,171,2.0,11.0,47,0.00,,,0.00,Wunderground v.1.15,2013-05-16 14:36:00,
2013-05-16 10:46:00,67.1,39.2,29.53,WNW,284,2.0,11.0,36,0.00,,,0.00,Wunderground v.1.15,2013-05-16 14:46:00,
2013-05-16 10:56:00,66.8,38.3,29.53,West,261,5.0,5.0,35,0.00,,,0.00,Wunderground v.1.15,2013-05-16 14:56:00,
2013-05-16 11:36:00,68.8,37.7,29.52,West,265,5.0,5.0,32,0.00,,,0.00,Wunderground v.1.15,2013-05-16 15:36:00,
2013-05-16 11:46:00,69.4,35.7,29.52,SW,226,4.0,4.0,29,0.00,,,0.00,Wunderground v.1.15,2013-05-16 15:46:00,
2013-05-16 12:36:00,70.4,34.8,29.52,West,267,6.0,6.0,27,0.00,,,0.00,Wunderground v.1.15,2013-05-16 16:36:00,
2013-05-16 13:26:00,70.4,30.8,29.50,NNW,333,13.0,13.0,23,0.00,,,0.00,Wunderground v.1.15,2013-05-16 17:26:00,
2013-05-16 13:46:00,72.3,33.5,29.50,WNW,290,6.0,27.0,24,0.00,,,0.00,Wunderground v.1.15,2013-05-16 17:46:00,
2013-05-16 14:06:00,71.5,33.8,29.50,SSW,210,8.0,8.0,25,0.00,,,0.00,Wunderground v.1.15,2013-05-16 18:06:00,
2013-05-16 14:16:00,73.2,36.2,29.49,West,263,5.0,29.0,26,0.00,,,0.00,Wunderground v.1.15,2013-05-16 18:16:00,
2013-05-16 14:36:00,71.1,33.5,29.49,SSW,213,4.0,23.0,25,0.00,,,0.00,Wunderground v.1.15,2013-05-16 18:36:00,
2013-05-16 14:46:00,71.5,31.7,29.49,WSW,242,5.0,23.0,23,0.00,,,0.00,Wunderground v.1.15,2013-05-16 18:46:00,
2013-05-16 14:56:00,71.1,30.3,29.49,West,281,6.0,6.0,22,0.00,,,0.00,Wunderground v.1.15,2013-05-16 18:56:00,
2013-05-16 15:26:00,70.9,31.2,29.49,NW,309,6.0,18.0,23,0.00,,,0.00,Wunderground v.1.15,2013-05-16 19:26:00,
2013-05-16 16:06:00,71.6,32.9,29.50,WNW,292,4.0,4.0,24,0.00,,,0.00,Wunderground v.1.15,2013-05-16 20:06:00,
2013-05-16 16:36:00,71.3,32.6,29.51,WSW,238,4.0,22.0,24,0.00,,,0.00,Wunderground v.1.15,2013-05-16 20:36:00,
2013-05-16 17:16:00,68.6,34.2,29.54,NW,305,8.0,8.0,28,0.00,,,0.00,Wunderground v.1.15,2013-05-16 21:16:00,
2013-05-16 17:26:00,69.3,33.9,29.54,West,270,8.0,8.0,27,0.00,,,0.00,Wunderground v.1.15,2013-05-16 21:26:00,
2013-05-16 18:06:00,67.4,35.7,29.56,WNW,300,6.0,6.0,31,0.00,,,0.00,Wunderground v.1.15,2013-05-16 22:06:00,
2013-05-16 18:36:00,65.5,37.8,29.57,West,281,5.0,18.0,36,0.00,,,0.00,Wunderground v.1.15,2013-05-16 22:36:00,
2013-05-16 18:46:00,64.7,37.8,29.58,NW,312,7.0,7.0,37,0.00,,,0.00,Wunderground v.1.15,2013-05-16 22:46:00,
2013-05-16 19:06:00,62.1,38.7,29.60,NNW,337,4.0,4.0,42,0.00,,,0.00,Wunderground v.1.15,2013-05-16 23:06:00,
2013-05-16 19:26:00,59.9,39.6,29.61,WNW,292,4.0,17.0,47,0.00,,,0.00,Wunderground v.1.15,2013-05-16 23:26:00,
2013-05-16 19:46:00,58.0,40.0,29.64,WNW,302,5.0,18.0,51,0.00,,,0.00,Wunderground v.1.15,2013-05-16 23:46:00,
2013-05-16 19:56:00,57.5,41.0,29.64,WNW,291,4.0,4.0,54,0.00,,,0.00,Wunderground v.1.15,2013-05-16 23:56:00,
2013-05-16 20:36:00,55.9,40.0,29.67,NW,318,2.0,12.0,55,0.00,,,0.00,Wunderground v.1.15,2013-05-17 00:36:00,
2013-05-16 20:46:00,55.7,39.8,29.67,WNW,295,4.0,4.0,55,0.00,,,0.00,Wunderground v.1.15,2013-05-17 00:46:00,
2013-05-16 20:56:00,55.6,39.7,29.67,WNW,292,2.0,12.0,55,0.00,,,0.00,Wunderground v.1.15,2013-05-17 00:56:00,
2013-05-16 21:26:00,55.0,39.1,29.68,WNW,296,2.0,10.0,55,0.00,,,0.00,Wunderground v.1.15,2013-05-17 01:26:00,
2013-05-16 21:36:00,55.0,38.6,29.69,NW,304,3.0,12.0,54,0.00,,,0.00,Wunderground v.1.15,2013-05-17 01:36:00,
2013-05-16 22:36:00,53.6,38.3,29.70,NW,325,3.0,12.0,56,0.00,,,0.00,Wunderground v.1.15,2013-05-17 02:36:00,
2013-05-16 22:46:00,53.5,38.6,29.71,WNW,290,2.0,10.0,57,0.00,,,0.00,Wunderground v.1.15,2013-05-17 02:46:00,
2013-05-16 23:06:00,53.1,37.3,29.71,WNW,300,5.0,5.0,55,0.00,,,0.00,Wunderground v.1.15,2013-05-17 03:06:00,
2013-05-16 23:16:00,52.8,38.0,29.72,WNW,301,4.0,4.0,57,0.00,,,0.00,Wunderground v.1.15,2013-05-17 03:16:00,
2013-05-16 23:26:00,52.6,38.2,29.72,West,279,3.0,3.0,58,0.00,,,0.00,Wunderground v.1.15,2013-05-17 03:26:00,
2013-05-16 23:46:00,52.2,37.9,29.73,WNW,301,2.0,14.0,58,0.00,,,0.00,Wunderground v.1.15,2013-05-17 03:46:00,